Location: Wilsall
(45.9940°N, 110.6590°W)
Time: 11:05:13
(UTC-07:00)

Daily predictions for brighter satellites

Satellite Brightness Start Highest point End
(mag) Time Altitude Azimuth Time Altitude Azimuth Time Altitude Azimuth
Okean 3 Rocket 4.0 17:43:28 10° SSE 17:47:45 44° E 17:52:03 10° NNE
NOSS 3-3 (A) 4.1 17:42:22 10° SW 17:48:29 85° NW 17:55:17 10° NE
NOSS 3-3 (C) 4.1 17:42:29 10° SW 17:48:36 86° NW 17:55:23 10° NE
CORIOLIS 4.1 17:46:47 10° SSE 17:52:08 82° ENE 17:57:31 10° NNW
Cosmos 1656 Rocket 3.9 17:47:22 10° NNW 17:52:41 48° ENE 17:58:01 10° SE
Cosmos 1300 2.8 17:50:16 10° N 17:54:01 52° ENE 17:57:45 10° SSE
Cosmos 2369 Rocket 3.3 17:49:26 10° NW 17:54:56 52° WSW 18:00:25 10° S
ERS-2 3.5 17:56:07 10° ESE 17:58:48 19° ENE 18:01:31 10° NNE
YAOGAN 1 2.6 17:54:38 10° SSE 17:58:52 57° ENE 18:03:08 10° N
Cosmos 2341 Rocket 4.2 17:55:06 10° N 18:01:22 80° W 18:07:40 10° S
Meteor 2-16 Rocket 4.4 17:55:27 10° N 18:01:35 80° E 18:07:43 10° SSE
Cosmos 1943 Rocket 2.7 17:56:32 10° NNW 18:02:07 67° WSW 18:07:36 10° SSE
CSL-04 Rocket 4.2 17:56:49 10° S 18:02:20 67° WSW 18:07:50 10° NNW
SL-24 R/B - RUBIN 2 3.5 18:01:22 10° NNW 18:05:59 68° NE 18:10:17 10° SE
Cosmos 2221 3.0 18:03:58 10° NNW 18:08:19 68° W 18:12:39 10° S
Cosmos 2058 4.4 18:08:05 10° SE 18:10:52 18° E 18:12:51 13° NE
CZ-2C R/B 3.8 18:06:17 10° NNE 18:10:59 65° ESE 18:15:35 10° S
SL-14 R/B 3.2 18:07:34 10° S 18:11:32 69° E 18:15:27 10° NNE
Ariane Rocket 3.8 18:12:07 10° S 18:17:06 57° W 18:22:07 10° NNW
Meteor 1-28 Rocket 4.2 18:19:12 10° N 18:22:54 49° WNW 18:26:34 10° SSW
Cosmos 44 3.3 18:19:05 10° SSW 18:23:15 49° ESE 18:26:30 17° NE
Cosmos 1726 3.9 18:20:35 10° NNW 18:23:57 35° W 18:27:17 10° SSW
FENGYUN 3A 3.6 18:20:45 10° SSE 18:26:04 69° ENE 18:31:25 10° N
Cosmos 2181 Rocket 4.3 18:20:05 10° SSW 18:26:32 73° W 18:32:58 10° N
CZ-4 R/B 2.5 18:23:48 10° S 18:27:54 50° W 18:32:03 10° NNW
Cosmos 1515 Rocket 4.2 18:24:28 10° N 18:28:23 31° ENE 18:32:15 10° SE
USA 215 4.2 18:23:15 13° NE 18:28:30 36° N 18:34:20 10° WNW
ERBS 3.6 18:26:30 10° NNW 18:29:20 24° NNE 18:30:08 22° NE
Cosmos 2151 3.9 18:26:39 10° SE 18:30:12 26° E 18:32:06 19° NE
Cosmos 1408 Rocket 3.5 18:26:16 10° S 18:30:29 57° E 18:34:44 10° NNE
Cosmos 909 Rocket 4.3 18:25:25 10° NNW 18:32:21 52° NE 18:38:28 10° ESE
COSMO-SKYMED 1 2.5 18:33:15 10° NNE 18:37:38 84° ESE 18:41:58 10° SSW
ATLAS 5 CENTAUR R/B 4.2 18:36:02 10° NNW 18:38:19 13° N 18:40:42 10° NNE
Cosmos 1346 Rocket 2.6 18:34:39 10° N 18:38:34 64° ENE 18:42:25 10° SSE
RESURS DK-1 4.4 18:36:15 10° N 18:37:33 13° NNE 18:37:33 13° NNE
Cosmos 1777 Rocket 4.0 18:33:34 10° NNW 18:38:50 88° ENE 18:44:06 10° SSE
SL-8 Rocket 4.5 18:32:43 10° NNW 18:38:51 64° W 18:44:59 10° S
SPOT 3 Rocket 3.4 18:34:48 10° SSE 18:39:56 76° ENE 18:45:07 10° NNW
Cosmos 1076 Rocket 4.3 18:37:05 10° SSW 18:41:22 53° WNW 18:45:40 10° N
Meteor 1-27 4.2 18:36:44 10° N 18:42:26 67° ENE 18:48:11 10° SSE
Cosmos 1315 Rocket 2.9 18:39:31 10° SSW 18:43:25 75° WNW 18:47:21 10° N
Cosmos 1500 Rocket 4.3 18:39:44 10° SSE 18:43:41 32° E 18:45:02 26° ENE
MTI 3.7 18:41:27 11° NNE 18:44:31 88° WNW 18:47:43 10° SSW
TSX-5 3.4 18:41:32 10° SSW 18:44:45 84° WNW 18:46:56 22° NNE
H-2A R/B 2.9 18:41:30 10° SSE 18:45:10 48° ENE 18:48:55 10° N
Cosmos 2218 Rocket 4.4 18:40:00 10° NNW 18:46:06 67° W 18:52:10 10° S
Meteor 1-11 4.1 18:41:36 10° S 18:47:08 66° E 18:52:46 10° NNE
Cosmos 1455 2.2 18:48:02 10° N 18:51:51 54° ENE 18:55:35 10° SSE
USA 81 4.3 18:46:55 10° SSE 18:51:54 44° E 18:56:54 10° NNE
Cosmos 2228 Rocket 3.1 18:47:38 10° N 18:52:11 60° E 18:56:42 10° SSE
COSMOS 2406 3.5 18:47:02 10° S 18:52:28 47° ESE 18:55:35 24° NE
Cosmos 44 Rocket 3.1 18:53:10 10° SSW 18:57:51 83° SE 19:00:20 28° NE
Cosmos 1743 Rocket 3.5 18:54:01 10° S 18:58:16 56° E 19:00:53 22° NNE
Cosmos 1328 Rocket 3.5 18:55:34 10° N 18:59:58 86° WSW 19:04:18 10° S
Tiangong 1 2.9 18:59:35 10° WSW 19:01:22 18° SSW 19:01:41 17° S
BREEZE-M DEB (TANK) 1.5 18:58:28 10° WSW 19:02:27 88° NNW 19:02:38 77° ENE
FengYun 1-2 T 4.1 18:57:45 10° SSE 19:03:21 72° ENE 19:08:57 10° N
Cosmos 1898 Rocket 4.0 19:03:32 10° N 19:08:30 38° ENE 19:08:33 38° ENE
EO 1 Del DPAF 3.5 19:07:01 14° N 19:10:14 67° WNW 19:14:01 10° SSW
TIMED 4.5 19:06:21 10° NNW 19:10:45 83° WSW 19:15:06 10° SSE
Cosmos 1697 Rocket 4.1 19:08:06 10° N 19:11:16 21° NNE 19:11:16 21° NNE
Cosmos 1626 3.1 19:09:18 10° SSW 19:12:54 47° WNW 19:16:31 10° N
Cosmos 1241 Rocket 4.5 19:07:02 10° NW 19:13:16 80° WSW 19:19:30 10° SSE
Cosmos 2098 Rocket 4.0 19:09:30 10° NNW 19:14:42 73° W 19:21:10 10° S
ALOS 3.8 19:14:04 10° SSW 19:18:22 36° W 19:22:42 10° NNW
GEOS 3 Rocket 3.6 19:16:31 35° ESE 19:18:49 72° NE 19:24:13 10° NW
Cosmos 332 Rocket 3.7 19:14:00 10° S 19:18:51 69° ESE 19:20:07 48° NE
Lacrosse 5 3.9 19:20:43 10° SSE 19:21:57 15° SSE 19:21:57 15° SSE
Meteor 2-15 Rocket 4.4 19:20:03 10° S 19:26:03 61° E 19:32:05 10° NNE
Cosmos 1821 Rocket 3.8 19:21:20 10° N 19:27:31 82° E 19:33:46 10° S
Cosmos 1535 Rocket 4.3 19:22:28 10° N 19:28:38 72° E 19:34:43 10° SSE
Envisat 3.4 19:31:32 46° NNE 19:31:32 46° NNE 19:35:23 10° N
Cosmos 1703 4.2 19:26:41 10° SSW 19:30:32 49° WNW 19:32:57 21° N
ERS-2 3.8 19:28:54 10° SSW 19:32:15 33° W 19:35:39 10° NNW
Cosmos 1151 Rocket 3.6 19:30:12 10° NNW 19:34:31 59° W 19:38:50 10° S
Cosmos 1570 Rocket 3.9 19:29:25 10° S 19:34:42 69° ESE 19:34:52 68° E
Nadezhda 3 Rocket 4.3 19:36:18 10° SSW 19:42:36 68° W 19:48:58 10° N
Cosmos 2058 4.1 19:43:28 10° SSW 19:47:27 42° WNW 19:49:10 28° NNW
Thor Agena Rocket 3.5 19:56:39 80° WNW 19:56:41 80° WNW 20:01:54 10° SSW
CZ-4C R/B 4.0 19:53:42 10° S 19:54:43 16° S 19:54:43 16° S
Cosmos 371 Rocket 4.0 19:59:33 10° SW 20:04:06 52° WNW 20:04:06 52° WNW
Cosmos 1934 Rocket 4.2 19:58:53 10° NNW 20:05:14 73° W 20:11:35 10° S
Cosmos 1605 Rocket 4.4 20:03:53 10° N 20:08:19 50° N 20:08:19 50° N
USA 215 4.0 20:10:36 37° N 20:10:36 37° N 20:16:26 10° NW
Cosmos 1980 Rocket 4.1 20:06:03 10° NNW 20:07:39 18° N 20:07:39 18° N
SME Rocket 4.5 20:12:39 71° E 20:13:00 72° ENE 20:23:08 10° NNW
ATLAS 5 CENTAUR R/B 4.3 20:20:47 10° NNW 20:22:20 16° N 20:22:20 16° N
